Regional Weather Roundup
Issued by NWS Sterling, VA

Home | Current Version | Previous Version | Graphics & Text | Print | Product List | Glossary On
Versions: 1 2 3 4 5 6 7 8 9 10 11 12 13 14 15 16 17 18 19 20 21 22 23 24 25 26 27
000
ASUS41 KLWX 290411
RWRLWX

REGIONAL WEATHER ROUNDUP
NATIONAL WEATHER SERVICE BALTIMORE MD/WASHINGTON DC
1200 AM EDT THU SEP 29 2016

Note: "FAIR" indicates few or no clouds below 12,000 feet
with no significant weather and/or obstructions to visibility.
 TC=TEMPERATURE CELSIUS

 * =Non NWS site. Station does not report precipitation (e.g. rain,
    snow, etc.), thunder, or fog.

DCZ001-MDZ009-015-VAZ040>042-051-053>054-290500-
WASHINGTON METRO

CITY           SKY/WX    TMP DP  RH WIND       PRES   REMARKS
WASHINGTON NAT LGT RAIN  70  69  97 E15       30.03F
DULLES         LGT RAIN  67  65  93 E13       30.02S FOG
ANDREWS AFB    LGT RAIN  68  66  94 E13G21    30.04R
FT BELVOIR     CLOUDY    70  66  88 VRB3      30.01F
QUANTICO       CLOUDY    72  68  87 SE14      30.01F
COLLEGE PARK*  CLOUDY    66  64  94 E6        30.05S
LEESBURG*      CLOUDY    66  66 100 E10G18    30.04S
MANASSAS*      CLOUDY    70  70 100 E12G17    30.00S
GAITHERSBURG*  CLOUDY    64  61  88 E6        30.09S

$$

MDZ006>007-011-014-290500-
BALTIMORE METRO

CITY           SKY/WX    TMP DP  RH WIND       PRES   REMARKS
BWI AIRPORT    CLOUDY    66  64  93 E16       30.07S
MD SCIENCE CTR   N/A     66  63  90 MISG      30.08R
ANNAPOLIS      CLOUDY    70  67  90 E15G28    30.06R
FORT MEADE*    CLOUDY    64  63  94 E13G20    30.09R

$$

MDZ012-015-019>023-290500-
MARYLAND EASTERN SHORE

CITY           SKY/WX    TMP DP  RH WIND       PRES   REMARKS
OCEAN CITY     CLOUDY    72  68  87 E22G29    30.06F
SALISBURY      HVY RAIN  69  68  96 NE17G25   30.06S FOG
BAY BRIDGE AP* LGT RAIN  68  66  94 MISG      30.06R
CAMBRIDGE*     CLOUDY    66  64  94 E10G18    30.08R

$$

MDZ017>025-290500-
SOUTHERN MARYLAND

CITY           SKY/WX    TMP DP  RH WIND       PRES   REMARKS
PATUXENT RIVER TSTM      70  67  90 E22G33    30.03F FOG
ST INIGOES     HVY RAIN  71  69  93 NE15G28   30.02F FOG
LEONARDTOWN*   CLOUDY    68  66  94 E12G20    30.04F

$$

MDZ003>005-290500-
NORTH CENTRAL MARYLAND

CITY           SKY/WX    TMP DP  RH WIND       PRES   REMARKS
FREDERICK*     NOT AVBL
HAGERSTOWN APT RAIN      64  60  87 NE12      30.06S FOG

$$

MDZ501>502-290500-
WESTERN MARYLAND

CITY           SKY/WX    TMP DP  RH WIND       PRES   REMARKS
OAKLAND*       FOG       55  55 100 E17       30.05S VSB 1/4
CUMBERLAND*    CLOUDY    64  63  94 NE6       30.07F

$$

VAZ025>031-290500-
SHENANDOAH VALLEY

CITY           SKY/WX    TMP DP  RH WIND       PRES   REMARKS
WINCHESTER*    HVY RAIN  64  64 100 NE6       30.03S
FRONT ROYAL*   CLOUDY    63  63 100 CALM      30.00F
LURAY*         TSTM     N/A N/A N/A N3        30.01R
NEW MARKET*    CLOUDY   N/A N/A N/A NE6       30.00S
STAUNTON*      RAIN      63  62  97 CALM      30.02F
WAYNESBORO*    CLOUDY    62  61  96 CALM      30.01S

$$

WVZ021-048>050-054>055-290500-
EASTERN WEST VIRGINIA PANHANDLE

CITY           SKY/WX    TMP DP  RH WIND       PRES   REMARKS
MARTINSBURG    RAIN      64  62  93 NE9       30.03F FOG
PETERSBURG*    CLOUDY    66  62  87 CALM      30.00F

$$

VAZ036>039-050-290500-
CENTRAL FOOTHILLS

CITY           SKY/WX    TMP DP  RH WIND       PRES   REMARKS
CHARLOTTESVILL CLOUDY    68  66  93 E5        30.00R
CULPEPER*      DRIZZLE   70  69  99 SE3       30.00F
ORANGE*          N/A     68  68 100 E8        30.01S
GORDONSVILLE*  NOT AVBL
WARRENTON*     CLOUDY    70  65  83 E8        29.99F

$$

VAZ055>057-290500-
NORTH AND CENTRAL PIEDMONT

CITY           SKY/WX    TMP DP  RH WIND       PRES   REMARKS
FREDERICKSBRG* CLOUDY    68  68 100 SE9       30.00R
STAFFORD*      RAIN      69  68  98 SE7       30.04S

$$

NCZ024-NYZ072-PAZ021-071-VAZ022-071-290500-
OTHER REGIONAL OBSERVATIONS

CITY           SKY/WX    TMP DP  RH WIND       PRES   REMARKS
NEW YORK CITY  CLOUDY    57  53  86 NE9       30.28S
PHILADELPHIA   LGT RAIN  62  59  90 NE13G29   30.17R
PITTSBURGH     CLOUDY    63  58  83 E7        29.98R
ROANOKE        CLOUDY    64  63  96 CALM      30.01R
RICHMOND       TSTM      66  65  96 NE14G23   30.01S FOG
RALEIGH        TSTM      68  66  93 SW18G29   30.05R FOG

$$

ANZ530>537-290500-
MARINE OBSERVATIONS

STATION/POSITION TIME  TEMP    WIND        PRES
                       AIR SEA DIR/SP/G
                 (UTC) (F)     (DEG/KT/KT) (MB)
THOMAS PT LIGHT  0400   69 73  100/ 24/ 27 1018.4R
BALT KEY BRIDGE  0348   67      70/ 17/ 20 1018.0F
COVE POINT       0348   69     120/ 18/ 23 1017.8F
LEWISETTA        0348   72 72   90/ 22/ 25 1016.2F
SOLOMONS ISLAND  0348           80/ 22/ 27   N/A
PINEY POINT      0348          110/ 17/ 21   N/A

$$





USA.gov is the U.S. government's official web portal to all federal, state and local government web resources and services.